Location: Narrabri
(30.3170°S, 149.7830°E)
Time: 21:07:37
(UTC+11:00)

Tiangong 2 - Pass Details

Date: 12 October 2017
Orbit: 386 x 390 km, 42.8° (Epoch: 17 December)

Event Time Altitude Azimuth Distance (km) Brightness Sun altitude
Rises 21:08:33 0° 228° (SW) 2,292 6.2 -25.4°
Reaches altitude 10° 21:10:52 10° 215° (SW) 1,432 4.7 -25.8°
Enters shadow 21:11:59 17° 200° (SSW) 1,073 3.8 -26.0°
